Check out our new BloomSky Weather System.

Active alerts

Houston, TX
  Details for Houston, TX Dense Fog Advisory


Thunder radar  blitzortung!


Rain radar more information rain snow radar


Visit our other weather sites:

Template documentation
and downloads

And another site



Weather Underground History page Text

Daily Summary for July 22, 2017 Units:  English    Metric   Both
« Previous Day
Next Day »
Daily Weekly Monthly Yearly Custom
  High: Low: Average:
Temperature: 95.0 °F 74.3 °F 83.4 °F
Dew Point: 80.6 °F 72.3 °F 77.2 °F
Humidity: 97 % 56 % 83 %
Wind Speed: 13.0 mph 0.0 mph 1.6 mph
Wind Gust: 20.0 mph - -
Wind:- - South
Pressure: 29.99 in 29.87 in -
Precipitation: 1.33 in    
Historical Graphs
 
 
Tabular Data for July 22, 2017
Time Temperature Dew Point Pressure Wind Wind Speed Wind Gust Humidity Rainfall Rate (Hourly)
00:03 82.9 °F 77.5 °F 29.95 in SSE 1.0 mph 3.0 mph 84 % 0.00 in
00:08 82.9 °F 77.5 °F 29.95 in South 2.0 mph 3.0 mph 84 % 0.00 in
00:13 82.9 °F 77.9 °F 29.95 in Calm   3.0 mph 85 % 0.00 in
00:18 82.8 °F 77.7 °F 29.95 in South 1.0 mph 3.0 mph 85 % 0.00 in
00:23 82.8 °F 77.7 °F 29.95 in SSE 1.0 mph 3.0 mph 85 % 0.00 in
00:28 82.8 °F 77.7 °F 29.95 in SE 1.0 mph 3.0 mph 85 % 0.00 in
00:33 82.8 °F 77.7 °F 29.95 in Calm   3.0 mph 85 % 0.00 in
00:38 82.6 °F 77.5 °F 29.95 in Calm   3.0 mph 85 % 0.00 in
00:43 82.4 °F 77.7 °F 29.95 in Calm   2.0 mph 86 % 0.00 in
00:48 82.2 °F 77.5 °F 29.95 in South 1.0 mph 2.0 mph 86 % 0.00 in
00:53 82.2 °F 77.5 °F 29.95 in SSW 1.0 mph 2.0 mph 86 % 0.00 in
00:58 82.2 °F 77.5 °F 29.95 in South 2.0 mph 3.0 mph 86 % 0.00 in
01:03 82.0 °F 77.7 °F 29.95 in SSW 1.0 mph 3.0 mph 87 % 0.00 in
01:08 81.9 °F 77.5 °F 29.95 in South 1.0 mph 3.0 mph 87 % 0.00 in
01:13 81.9 °F 77.5 °F 29.95 in SSE 1.0 mph 2.0 mph 87 % 0.00 in
01:18 81.9 °F 77.5 °F 29.94 in ESE 2.0 mph 3.0 mph 87 % 0.00 in
01:23 81.9 °F 77.9 °F 29.94 in Calm   3.0 mph 88 % 0.00 in
01:28 81.9 °F 77.9 °F 29.94 in Calm   3.0 mph 88 % 0.00 in
01:33 81.7 °F 77.7 °F 29.94 in South 1.0 mph 3.0 mph 88 % 0.00 in
01:38 81.7 °F 77.7 °F 29.94 in Calm   4.0 mph 88 % 0.00 in
01:43 81.7 °F 77.7 °F 29.94 in SSW 1.0 mph 4.0 mph 88 % 0.00 in
01:48 81.7 °F 78.1 °F 29.94 in SSE 1.0 mph 4.0 mph 89 % 0.00 in
01:54 81.7 °F 78.1 °F 29.94 in Calm   5.0 mph 89 % 0.00 in
01:59 81.5 °F 77.9 °F 29.94 in SSW 1.0 mph 5.0 mph 89 % 0.00 in
02:04 81.5 °F 77.9 °F 29.94 in SSW 1.0 mph 5.0 mph 89 % 0.00 in
02:09 81.3 °F 77.7 °F 29.94 in SSE 2.0 mph 3.0 mph 89 % 0.00 in
02:14 81.3 °F 77.7 °F 29.94 in Calm   3.0 mph 89 % 0.00 in
02:19 81.3 °F 77.7 °F 29.94 in Calm   2.0 mph 89 % 0.00 in
02:24 81.1 °F 77.5 °F 29.94 in Calm   2.0 mph 89 % 0.00 in
02:29 81.0 °F 77.4 °F 29.94 in Calm   2.0 mph 89 % 0.00 in
02:34 80.8 °F 77.2 °F 29.94 in Calm   2.0 mph 89 % 0.00 in
02:39 80.6 °F 77.4 °F 29.93 in South 1.0 mph   90 % 0.00 in
02:44 80.6 °F 77.4 °F 29.93 in South 2.0 mph 2.0 mph 90 % 0.00 in
02:49 80.4 °F 77.2 °F 29.93 in SSE 1.0 mph 2.0 mph 90 % 0.00 in
02:54 80.4 °F 77.2 °F 29.93 in Calm   2.0 mph 90 % 0.00 in
02:55 80.4 °F 77.2 °F 29.93 in South 1.0 mph 2.0 mph 90 % 0.00 in
03:00 80.2 °F 77.0 °F 29.93 in SSE 1.0 mph 2.0 mph 90 % 0.00 in
03:05 80.2 °F 77.4 °F 29.93 in Calm   2.0 mph 91 % 0.00 in
03:10 80.2 °F 77.4 °F 29.93 in Calm   2.0 mph 91 % 0.00 in
03:15 80.2 °F 77.4 °F 29.93 in Calm   2.0 mph 91 % 0.00 in
03:20 80.1 °F 77.2 °F 29.93 in Calm   2.0 mph 91 % 0.00 in
03:25 80.1 °F 77.2 °F 29.93 in South 1.0 mph 2.0 mph 91 % 0.00 in
03:30 80.1 °F 77.2 °F 29.93 in South 2.0 mph 2.0 mph 91 % 0.00 in
03:35 80.1 °F 77.2 °F 29.92 in Calm   2.0 mph 91 % 0.00 in
03:40 79.9 °F 77.0 °F 29.92 in Calm   2.0 mph 91 % 0.00 in
03:45 79.9 °F 77.0 °F 29.93 in Calm   2.0 mph 91 % 0.00 in
03:50 79.7 °F 76.8 °F 29.93 in Calm   2.0 mph 91 % 0.00 in
03:55 79.7 °F 77.2 °F 29.93 in Calm   2.0 mph 92 % 0.00 in
04:00 79.7 °F 77.2 °F 29.93 in Calm   2.0 mph 92 % 0.00 in
04:05 79.7 °F 77.2 °F 29.93 in SSE 1.0 mph 2.0 mph 92 % 0.00 in
04:10 79.9 °F 77.4 °F 29.94 in SSE 1.0 mph 2.0 mph 92 % 0.00 in
04:15 79.9 °F 77.4 °F 29.94 in SSE 1.0 mph 4.0 mph 92 % 0.00 in
04:20 79.9 °F 77.4 °F 29.93 in Calm   4.0 mph 92 % 0.00 in
04:25 79.9 °F 77.4 °F 29.94 in SE 1.0 mph 4.0 mph 92 % 0.00 in
04:30 79.9 °F 77.0 °F 29.94 in Calm   2.0 mph 91 % 0.00 in
04:35 79.5 °F 76.6 °F 29.93 in Calm   2.0 mph 91 % 0.00 in
04:40 79.5 °F 77.0 °F 29.93 in Calm   1.0 mph 92 % 0.00 in
04:45 79.5 °F 77.0 °F 29.93 in SSE 1.0 mph 1.0 mph 92 % 0.00 in
04:50 79.5 °F 77.0 °F 29.93 in Calm   1.0 mph 92 % 0.00 in
04:55 79.3 °F 76.8 °F 29.93 in ESE 1.0 mph 1.0 mph 92 % 0.00 in
05:00 79.3 °F 76.8 °F 29.94 in Calm   1.0 mph 92 % 0.00 in
05:05 79.2 °F 76.6 °F 29.94 in Calm   1.0 mph 92 % 0.00 in
05:10 79.2 °F 76.6 °F 29.94 in Calm   1.0 mph 92 % 0.00 in
05:15 79.0 °F 76.8 °F 29.94 in Calm   1.0 mph 93 % 0.00 in
05:20 79.2 °F 77.0 °F 29.94 in South 1.0 mph 2.0 mph 93 % 0.00 in
05:25 79.2 °F 77.0 °F 29.94 in SSW 1.0 mph 2.0 mph 93 % 0.00 in
05:30 79.0 °F 76.8 °F 29.94 in Calm   2.0 mph 93 % 0.00 in
05:35 79.0 °F 76.8 °F 29.94 in Calm   2.0 mph 93 % 0.00 in
05:40 79.0 °F 76.8 °F 29.94 in Calm   1.0 mph 93 % 0.00 in
05:45 79.0 °F 76.8 °F 29.94 in Calm   1.0 mph 93 % 0.00 in
05:50 79.0 °F 76.8 °F 29.94 in Calm   1.0 mph 93 % 0.00 in
05:55 79.0 °F 76.8 °F 29.94 in Calm   1.0 mph 93 % 0.00 in
06:00 79.0 °F 76.8 °F 29.94 in Calm   1.0 mph 93 % 0.00 in
06:05 79.0 °F 76.8 °F 29.94 in Calm   1.0 mph 93 % 0.00 in
06:10 78.6 °F 76.5 °F 29.94 in Calm   1.0 mph 93 % 0.00 in
06:15 78.6 °F 76.5 °F 29.94 in Calm     93 % 0.00 in
06:20 78.4 °F 76.6 °F 29.94 in Calm     94 % 0.00 in
06:26 78.3 °F 76.1 °F 29.94 in Calm     93 % 0.00 in
06:31 78.1 °F 76.3 °F 29.94 in Calm     94 % 0.00 in
06:36 78.1 °F 76.3 °F 29.94 in Calm     94 % 0.00 in
06:41 77.9 °F 76.1 °F 29.94 in Calm     94 % 0.00 in
06:46 78.1 °F 76.3 °F 29.94 in Calm     94 % 0.00 in
06:51 78.1 °F 76.5 °F 29.94 in Calm   1.0 mph 95 % 0.00 in
06:56 78.1 °F 76.5 °F 29.95 in Calm   1.0 mph 95 % 0.00 in
07:01 78.1 °F 76.5 °F 29.95 in Calm   1.0 mph 95 % 0.00 in
07:06 78.3 °F 76.6 °F 29.95 in Calm     95 % 0.00 in
07:11 78.3 °F 76.6 °F 29.95 in Calm     95 % 0.00 in
07:16 78.4 °F 76.8 °F 29.95 in Calm   1.0 mph 95 % 0.00 in
07:21 78.8 °F 77.2 °F 29.96 in Calm   1.0 mph 95 % 0.00 in
07:26 79.3 °F 78.1 °F 29.95 in Calm   1.0 mph 96 % 0.00 in
07:31 80.1 °F 78.4 °F 29.95 in Calm   1.0 mph 95 % 0.00 in
07:33 80.2 °F 78.6 °F 29.95 in Calm   1.0 mph 95 % 0.00 in
07:38 81.0 °F 79.0 °F 29.96 in Calm   1.0 mph 94 % 0.00 in
07:43 81.9 °F 79.7 °F 29.96 in Calm   1.0 mph 93 % 0.00 in
07:48 82.0 °F 79.2 °F 29.96 in SSE 2.0 mph 2.0 mph 91 % 0.00 in
07:53 82.2 °F 79.0 °F 29.96 in SSE 1.0 mph 3.0 mph 90 % 0.00 in
07:58 82.6 °F 79.0 °F 29.96 in South 1.0 mph 3.0 mph 89 % 0.00 in
08:03 82.9 °F 79.0 °F 29.97 in SSE 1.0 mph 3.0 mph 88 % 0.00 in
08:08 82.9 °F 78.6 °F 29.97 in South 1.0 mph 3.0 mph 87 % 0.00 in
08:13 83.3 °F 79.0 °F 29.97 in SSE 1.0 mph 4.0 mph 87 % 0.00 in
08:18 83.7 °F 79.3 °F 29.97 in Calm   4.0 mph 87 % 0.00 in
08:23 84.2 °F 79.5 °F 29.97 in SSW 2.0 mph 4.0 mph 86 % 0.00 in
08:28 84.6 °F 79.5 °F 29.97 in South 2.0 mph 4.0 mph 85 % 0.00 in
08:33 84.7 °F 79.7 °F 29.97 in Calm   4.0 mph 85 % 0.00 in
08:38 85.3 °F 79.9 °F 29.98 in Calm   4.0 mph 84 % 0.00 in
08:43 85.8 °F 80.1 °F 29.98 in Calm   4.0 mph 83 % 0.00 in
08:48 86.2 °F 80.1 °F 29.98 in Calm   2.0 mph 82 % 0.00 in
08:53 86.7 °F 80.2 °F 29.98 in NW 1.0 mph 6.0 mph 81 % 0.00 in
08:58 87.1 °F 80.6 °F 29.98 in SSE 1.0 mph 6.0 mph 81 % 0.00 in
09:03 87.3 °F 80.2 °F 29.98 in West 1.0 mph 6.0 mph 80 % 0.00 in
09:08 87.1 °F 80.2 °F 29.98 in Calm   5.0 mph 80 % 0.00 in
09:13 87.3 °F 80.2 °F 29.98 in SSW 1.0 mph 5.0 mph 80 % 0.00 in
09:18 86.9 °F 79.5 °F 29.98 in SSE 3.0 mph 5.0 mph 79 % 0.00 in
09:23 86.9 °F 80.1 °F 29.98 in SW 3.0 mph 6.0 mph 80 % 0.00 in
09:28 86.9 °F 80.1 °F 29.99 in SSE 4.0 mph 9.0 mph 80 % 0.00 in
09:33 87.4 °F 80.1 °F 29.99 in SSW 2.0 mph 9.0 mph 79 % 0.00 in
09:38 87.8 °F 80.4 °F 29.99 in SSE 1.0 mph 9.0 mph 79 % 0.00 in
09:43 87.8 °F 79.3 °F 29.99 in ESE 3.0 mph 6.0 mph 76 % 0.00 in
09:44 87.6 °F 79.2 °F 29.99 in SSE 2.0 mph 6.0 mph 76 % 0.00 in
09:49 88.0 °F 79.9 °F 29.99 in SE 4.0 mph 7.0 mph 77 % 0.00 in
09:54 88.0 °F 79.5 °F 29.99 in SSW 4.0 mph 8.0 mph 76 % 0.00 in
09:59 88.3 °F 79.0 °F 29.99 in SE 5.0 mph 8.0 mph 74 % 0.00 in
10:04 88.3 °F 79.0 °F 29.99 in SSW 2.0 mph 8.0 mph 74 % 0.00 in
10:09 88.5 °F 79.2 °F 29.99 in South 4.0 mph 8.0 mph 74 % 0.00 in
10:14 88.5 °F 79.5 °F 29.99 in South 3.0 mph 7.0 mph 75 % 0.00 in
10:19 89.1 °F 79.7 °F 29.99 in SW 4.0 mph 7.0 mph 74 % 0.00 in
10:24 89.4 °F 79.7 °F 29.99 in SSW 1.0 mph 10.0 mph 73 % 0.00 in
10:29 90.1 °F 79.9 °F 29.99 in SSE 1.0 mph 10.0 mph 72 % 0.00 in
10:34 90.9 °F 79.7 °F 29.99 in WSW 1.0 mph 10.0 mph 70 % 0.00 in
10:39 91.6 °F 79.5 °F 29.99 in Calm   8.0 mph 68 % 0.00 in
10:44 92.3 °F 80.6 °F 29.99 in SSE 1.0 mph 7.0 mph 69 % 0.00 in
10:49 92.3 °F 79.3 °F 29.99 in South 1.0 mph 7.0 mph 66 % 0.00 in
10:54 91.4 °F 78.8 °F 29.98 in SSW 1.0 mph 6.0 mph 67 % 0.00 in
10:59 90.7 °F 78.6 °F 29.98 in Calm   6.0 mph 68 % 0.00 in
11:04 90.7 °F 79.2 °F 29.98 in WNW 2.0 mph 4.0 mph 69 % 0.00 in
11:09 90.9 °F 79.7 °F 29.98 in SSW 1.0 mph 4.0 mph 70 % 0.00 in
11:14 90.3 °F 79.2 °F 29.98 in Calm   4.0 mph 70 % 0.00 in
11:19 90.1 °F 79.0 °F 29.98 in SW 3.0 mph 5.0 mph 70 % 0.00 in
11:24 90.3 °F 79.2 °F 29.97 in SSE 3.0 mph 6.0 mph 70 % 0.00 in
11:29 91.0 °F 79.5 °F 29.97 in SE 7.0 mph 8.0 mph 69 % 0.00 in
11:34 91.4 °F 79.3 °F 29.97 in SSW 3.0 mph 8.0 mph 68 % 0.00 in
11:40 91.2 °F 77.7 °F 29.97 in SSE 2.0 mph 8.0 mph 65 % 0.00 in
11:44 91.9 °F 80.2 °F 29.97 in SSW 1.0 mph 9.0 mph 69 % 0.00 in
11:50 92.5 °F 79.0 °F 29.97 in SSW 2.0 mph 9.0 mph 65 % 0.00 in
11:54 92.7 °F 79.2 °F 29.96 in SSW 1.0 mph 9.0 mph 65 % 0.00 in
11:59 93.4 °F 79.9 °F 29.96 in South 6.0 mph 7.0 mph 65 % 0.00 in
12:05 93.0 °F 77.5 °F 29.96 in SSE 2.0 mph 7.0 mph 61 % 0.00 in
12:10 93.0 °F 79.5 °F 29.96 in SW 1.0 mph 7.0 mph 65 % 0.00 in
12:15 93.0 °F 78.1 °F 29.95 in SW 2.0 mph 7.0 mph 62 % 0.00 in
12:20 92.5 °F 78.1 °F 29.95 in SE 2.0 mph 7.0 mph 63 % 0.00 in
12:25 92.8 °F 77.4 °F 29.94 in West 1.0 mph 7.0 mph 61 % 0.00 in
12:30 92.8 °F 77.4 °F 29.94 in SSW 6.0 mph 7.0 mph 61 % 0.00 in
12:35 92.8 °F 77.9 °F 29.94 in SW 2.0 mph 8.0 mph 62 % 0.00 in
12:40 93.6 °F 78.1 °F 29.94 in SE 4.0 mph 9.0 mph 61 % 0.00 in
12:45 93.4 °F 77.9 °F 29.94 in SW 1.0 mph 9.0 mph 61 % 0.00 in
12:50 93.6 °F 79.0 °F 29.94 in Calm   9.0 mph 63 % 0.00 in
12:55 93.6 °F 79.5 °F 29.94 in South 3.0 mph 9.0 mph 64 % 0.00 in
13:00 94.1 °F 80.1 °F 29.94 in West 3.0 mph 7.0 mph 64 % 0.00 in
13:05 94.1 °F 78.6 °F 29.94 in West 2.0 mph 7.0 mph 61 % 0.00 in
13:10 93.6 °F 78.1 °F 29.94 in South 2.0 mph 5.0 mph 61 % 0.00 in
13:15 93.2 °F 78.8 °F 29.94 in SSW 1.0 mph 5.0 mph 63 % 0.00 in
13:20 93.7 °F 76.3 °F 29.94 in East 5.0 mph 5.0 mph 57 % 0.00 in
13:25 93.6 °F 77.0 °F 29.93 in SSW 3.0 mph 6.0 mph 59 % 0.00 in
13:30 93.2 °F 77.2 °F 29.94 in South 1.0 mph 8.0 mph 60 % 0.00 in
13:31 93.0 °F 77.5 °F 29.94 in SSE 3.0 mph 8.0 mph 61 % 0.00 in
13:36 92.5 °F 77.5 °F 29.93 in South 6.0 mph 8.0 mph 62 % 0.00 in
13:41 92.1 °F 77.7 °F 29.93 in SE 1.0 mph 7.0 mph 63 % 0.00 in
13:46 92.1 °F 77.2 °F 29.92 in Calm   7.0 mph 62 % 0.00 in
13:47 92.1 °F 77.7 °F 29.92 in SSE 2.0 mph 7.0 mph 63 % 0.00 in
13:52 93.0 °F 78.6 °F 29.92 in ESE 2.0 mph 7.0 mph 63 % 0.00 in
13:57 93.6 °F 78.6 °F 29.92 in South 1.0 mph 6.0 mph 62 % 0.00 in
14:02 94.3 °F 78.8 °F 29.92 in South 2.0 mph 6.0 mph 61 % 0.00 in
14:07 94.5 °F 77.9 °F 29.92 in Calm   6.0 mph 59 % 0.00 in
14:12 94.3 °F 77.7 °F 29.92 in SSE 3.0 mph 5.0 mph 59 % 0.00 in
14:17 93.7 °F 77.7 °F 29.92 in NW 1.0 mph 8.0 mph 60 % 0.00 in
14:22 93.7 °F 77.7 °F 29.91 in SSW 3.0 mph 8.0 mph 60 % 0.00 in
14:27 93.6 °F 77.5 °F 29.91 in SE 7.0 mph 8.0 mph 60 % 0.00 in
14:32 93.2 °F 77.2 °F 29.91 in East 3.0 mph 8.0 mph 60 % 0.00 in
14:37 93.0 °F 78.1 °F 29.91 in South 3.0 mph 10.0 mph 62 % 0.00 in
14:42 92.7 °F 77.7 °F 29.91 in SSE 3.0 mph 10.0 mph 62 % 0.00 in
14:47 92.5 °F 77.5 °F 29.91 in East 2.0 mph 10.0 mph 62 % 0.00 in
14:48 92.5 °F 78.1 °F 29.91 in ENE 3.0 mph 10.0 mph 63 % 0.00 in
14:53 92.5 °F 77.5 °F 29.91 in South 7.0 mph 9.0 mph 62 % 0.00 in
14:58 92.7 °F 77.2 °F 29.90 in SE 3.0 mph 9.0 mph 61 % 0.00 in
15:03 93.4 °F 78.8 °F 29.90 in SSW 3.0 mph 8.0 mph 63 % 0.00 in
15:08 94.1 °F 78.1 °F 29.90 in ESE 2.0 mph 8.0 mph 60 % 0.00 in
15:13 94.6 °F 78.1 °F 29.89 in SE 3.0 mph 8.0 mph 59 % 0.00 in
15:18 94.5 °F 76.8 °F 29.89 in ESE 5.0 mph 9.0 mph 57 % 0.00 in
15:23 94.5 °F 76.8 °F 29.89 in SSE 3.0 mph 11.0 mph 57 % 0.00 in
15:28 94.8 °F 77.2 °F 29.88 in South 5.0 mph 12.0 mph 57 % 0.00 in
15:33 95.0 °F 77.4 °F 29.88 in East 5.0 mph 12.0 mph 57 % 0.00 in
15:38 94.8 °F 77.2 °F 29.88 in ESE 6.0 mph 12.0 mph 57 % 0.00 in
15:43 94.6 °F 76.5 °F 29.88 in SE 6.0 mph 9.0 mph 56 % 0.00 in
15:48 94.5 °F 76.8 °F 29.88 in SE 8.0 mph 9.0 mph 57 % 0.00 in
15:53 94.3 °F 76.6 °F 29.88 in South 7.0 mph 9.0 mph 57 % 0.00 in
15:58 93.9 °F 76.3 °F 29.88 in SW 6.0 mph 9.0 mph 57 % 0.00 in
16:03 93.0 °F 78.1 °F 29.87 in SE 7.0 mph 10.0 mph 62 % 0.00 in
16:08 92.7 °F 78.6 °F 29.87 in South 5.0 mph 10.0 mph 64 % 0.00 in
16:13 92.5 °F 78.4 °F 29.87 in East 6.0 mph 12.0 mph 64 % 0.00 in
16:18 92.1 °F 78.6 °F 29.87 in SE 10.0 mph 12.0 mph 65 % 0.00 in
16:23 91.8 °F 78.8 °F 29.88 in ESE 6.0 mph 13.0 mph 66 % 0.00 in
16:28 91.6 °F 78.1 °F 29.88 in SE 7.0 mph 15.0 mph 65 % 0.00 in
16:29 91.6 °F 78.6 °F 29.88 in East 7.0 mph 15.0 mph 66 % 0.00 in
16:35 91.0 °F 78.1 °F 29.88 in SE 3.0 mph 15.0 mph 66 % 0.00 in
16:40 90.9 °F 77.9 °F 29.87 in ESE 8.0 mph 15.0 mph 66 % 0.00 in
16:45 90.7 °F 79.2 °F 29.87 in SE 4.0 mph 14.0 mph 69 % 0.00 in
16:50 90.1 °F 78.1 °F 29.88 in East 2.0 mph 14.0 mph 68 % 0.00 in
16:55 89.6 °F 79.0 °F 29.88 in ESE 4.0 mph 14.0 mph 71 % 0.00 in
17:00 87.6 °F 79.2 °F 29.88 in NNW 4.0 mph 12.0 mph 76 % 0.01 in
17:05 84.9 °F 79.2 °F 29.89 in NNW 3.0 mph 8.0 mph 83 % 0.04 in
17:10 82.8 °F 78.4 °F 29.89 in NNW 1.0 mph 10.0 mph 87 % 0.07 in
17:15 81.7 °F 78.1 °F 29.90 in NNW 3.0 mph 10.0 mph 89 % 0.08 in
17:20 80.8 °F 77.5 °F 29.91 in West 3.0 mph 10.0 mph 90 % 0.09 in
17:25 79.7 °F 76.5 °F 29.91 in WNW 7.0 mph 8.0 mph 90 % 0.25 in
17:30 79.3 °F 76.8 °F 29.92 in SSW 4.0 mph 12.0 mph 92 % 0.42 in
17:35 79.0 °F 76.8 °F 29.92 in West 1.0 mph 12.0 mph 93 % 0.77 in
17:40 78.4 °F 76.3 °F 29.91 in SSE 4.0 mph 12.0 mph 93 % 1.15 in
17:45 77.5 °F 75.4 °F 29.92 in South 3.0 mph 5.0 mph 93 % 1.20 in
17:50 76.6 °F 74.5 °F 29.93 in SE 3.0 mph 11.0 mph 93 % 1.21 in
17:55 76.6 °F 74.5 °F 29.93 in SSE 13.0 mph 20.0 mph 93 % 1.21 in
18:00 76.6 °F 74.5 °F 29.92 in ESE 7.0 mph 20.0 mph 93 % 1.18 in
18:05 76.3 °F 74.1 °F 29.93 in SE 11.0 mph 20.0 mph 93 % 1.15 in
18:10 75.7 °F 73.6 °F 29.92 in SE 5.0 mph 17.0 mph 93 % 1.14 in
18:15 75.6 °F 73.4 °F 29.91 in SE 6.0 mph 15.0 mph 93 % 1.16 in
18:16 75.6 °F 73.4 °F 29.91 in ESE 5.0 mph 15.0 mph 93 % 1.16 in
18:21 75.0 °F 72.9 °F 29.89 in ESE 4.0 mph 14.0 mph 93 % 1.16 in
18:26 74.8 °F 73.0 °F 29.89 in SE 6.0 mph 11.0 mph 94 % 1.04 in
18:31 74.5 °F 72.3 °F 29.89 in ESE 4.0 mph 10.0 mph 93 % 0.89 in
18:36 74.3 °F 72.5 °F 29.91 in East 2.0 mph 10.0 mph 94 % 0.51 in
18:37 74.3 °F 72.5 °F 29.91 in East 3.0 mph 10.0 mph 94 % 0.51 in
18:42 74.5 °F 73.0 °F 29.91 in East 1.0 mph 9.0 mph 95 % 0.17 in
18:47 74.7 °F 73.2 °F 29.90 in East 1.0 mph 6.0 mph 95 % 0.13 in
18:52 74.8 °F 73.2 °F 29.90 in South 1.0 mph 6.0 mph 95 % 0.12 in
18:57 74.8 °F 73.6 °F 29.90 in SSE 2.0 mph 3.0 mph 96 % 0.11 in
19:02 75.4 °F 74.1 °F 29.90 in Calm   4.0 mph 96 % 0.11 in
19:07 75.6 °F 74.3 °F 29.89 in SE 1.0 mph 4.0 mph 96 % 0.11 in
19:12 75.7 °F 74.5 °F 29.89 in Calm   4.0 mph 96 % 0.10 in
19:17 75.9 °F 74.7 °F 29.89 in Calm   3.0 mph 96 % 0.08 in
19:22 75.9 °F 74.7 °F 29.89 in Calm   3.0 mph 96 % 0.06 in
19:27 76.3 °F 75.0 °F 29.89 in SSW 1.0 mph 2.0 mph 96 % 0.04 in
19:32 76.3 °F 75.0 °F 29.89 in South 1.0 mph 2.0 mph 96 % 0.01 in
19:37 76.3 °F 75.0 °F 29.89 in Calm   2.0 mph 96 % 0.00 in
19:41 76.3 °F 75.0 °F 29.89 in Calm   2.0 mph 96 % 0.00 in
19:47 76.5 °F 75.2 °F 29.89 in East 1.0 mph 1.0 mph 96 % 0.00 in
19:52 76.6 °F 75.4 °F 29.89 in Calm   2.0 mph 96 % 0.00 in
19:57 76.5 °F 75.2 °F 29.90 in Calm   2.0 mph 96 % 0.00 in
20:02 76.6 °F 75.4 °F 29.89 in Calm   2.0 mph 96 % 0.00 in
20:07 76.8 °F 75.6 °F 29.88 in Calm   3.0 mph 96 % 0.00 in
20:12 76.8 °F 75.6 °F 29.88 in ESE 1.0 mph 3.0 mph 96 % 0.00 in
20:17 76.8 °F 75.6 °F 29.88 in Calm   3.0 mph 96 % 0.00 in
20:22 76.6 °F 75.4 °F 29.88 in Calm   2.0 mph 96 % 0.00 in
20:27 76.6 °F 75.4 °F 29.88 in Calm   2.0 mph 96 % 0.00 in
20:32 76.6 °F 75.4 °F 29.89 in Calm   1.0 mph 96 % 0.00 in
20:37 76.5 °F 75.2 °F 29.89 in Calm   1.0 mph 96 % 0.00 in
20:42 76.5 °F 75.2 °F 29.89 in Calm   1.0 mph 96 % 0.00 in
20:47 76.5 °F 75.2 °F 29.89 in Calm   1.0 mph 96 % 0.00 in
20:52 76.5 °F 75.2 °F 29.89 in Calm   1.0 mph 96 % 0.00 in
20:57 76.6 °F 75.7 °F 29.89 in Calm   1.0 mph 97 % 0.00 in
21:02 76.6 °F 75.7 °F 29.89 in Calm   1.0 mph 97 % 0.00 in
21:07 76.6 °F 75.7 °F 29.89 in Calm   1.0 mph 97 % 0.00 in
21:12 76.6 °F 75.7 °F 29.89 in Calm   1.0 mph 97 % 0.00 in
21:17 76.6 °F 75.4 °F 29.90 in Calm   1.0 mph 96 % 0.00 in
21:22 76.5 °F 75.2 °F 29.89 in Calm   1.0 mph 96 % 0.00 in
21:27 76.5 °F 75.6 °F 29.89 in Calm   1.0 mph 97 % 0.00 in
21:32 76.5 °F 75.2 °F 29.90 in Calm   1.0 mph 96 % 0.00 in
21:37 76.5 °F 75.2 °F 29.90 in Calm   1.0 mph 96 % 0.00 in
21:42 76.3 °F 75.0 °F 29.90 in Calm   1.0 mph 96 % 0.00 in
21:47 76.3 °F 75.0 °F 29.90 in Calm   1.0 mph 96 % 0.00 in
21:52 76.3 °F 75.0 °F 29.90 in Calm     96 % 0.00 in
21:57 76.3 °F 75.0 °F 29.90 in Calm   1.0 mph 96 % 0.00 in
22:02 76.3 °F 75.4 °F 29.90 in Calm   1.0 mph 97 % 0.00 in
22:07 76.5 °F 75.6 °F 29.90 in ESE 1.0 mph 1.0 mph 97 % 0.00 in
22:12 76.5 °F 75.6 °F 29.91 in Calm   1.0 mph 97 % 0.00 in
22:17 76.5 °F 75.6 °F 29.91 in Calm   1.0 mph 97 % 0.00 in
22:22 76.6 °F 75.7 °F 29.91 in Calm   1.0 mph 97 % 0.00 in
22:27 76.8 °F 75.9 °F 29.92 in Calm   1.0 mph 97 % 0.00 in
22:32 76.8 °F 75.9 °F 29.92 in Calm   1.0 mph 97 % 0.00 in
22:37 76.8 °F 75.9 °F 29.92 in Calm   1.0 mph 97 % 0.00 in
22:42 76.8 °F 75.6 °F 29.92 in Calm   1.0 mph 96 % 0.00 in
22:47 76.6 °F 75.4 °F 29.92 in Calm     96 % 0.00 in
22:48 76.6 °F 75.4 °F 29.92 in Calm     96 % 0.00 in
22:53 76.8 °F 75.9 °F 29.92 in Calm   1.0 mph 97 % 0.00 in
22:58 76.8 °F 75.9 °F 29.92 in Calm   1.0 mph 97 % 0.00 in
23:03 77.2 °F 76.3 °F 29.92 in ESE 1.0 mph 2.0 mph 97 % 0.00 in
23:08 77.4 °F 76.5 °F 29.92 in East 2.0 mph 3.0 mph 97 % 0.00 in
23:13 77.4 °F 76.5 °F 29.92 in ESE 1.0 mph 3.0 mph 97 % 0.00 in
23:18 77.5 °F 76.6 °F 29.92 in Calm   3.0 mph 97 % 0.00 in
23:23 77.7 °F 76.8 °F 29.92 in South 1.0 mph 3.0 mph 97 % 0.00 in
23:28 77.7 °F 76.8 °F 29.92 in SE 2.0 mph 3.0 mph 97 % 0.00 in
23:34 77.9 °F 77.0 °F 29.92 in South 1.0 mph 3.0 mph 97 % 0.00 in
23:39 78.1 °F 77.2 °F 29.92 in South 3.0 mph 3.0 mph 97 % 0.00 in
23:44 78.1 °F 77.2 °F 29.92 in SSE 1.0 mph 3.0 mph 97 % 0.00 in
23:49 78.1 °F 77.2 °F 29.93 in SSW 1.0 mph 3.0 mph 97 % 0.00 in
23:54 78.1 °F 76.8 °F 29.93 in Calm   3.0 mph 96 % 0.00 in
23:59 78.1 °F 76.8 °F 29.93 in Calm   2.0 mph 96 % 0.00 in
Spring, Texas: Villages of Bridgestone
Compliments of Weather Underground - 3 mb

Script developed by  Jim McMurry - jmcmurry@mwt.net Adapted for the template by  Wim van der Kuil - Leuven-Template.eu

You find our weather info also at:

UK Metoffice

WeatherCloud

Weather Underground

Mid-South Weather Network

AWEKAS

Citizen Weather Observer Program (CWOP)

HAMweather, WeatherForYou, PWS Weather

Equipment we use:

Weather-station
Davis Vantage Vue

Weather-program
Meteohub

Weather-server
Debian 7.9 x86 (Guest)

Provider
DreamHost

Davis Vantage Vue

Meteohub

Debian 7.9 x86 (Guest)

DreamHost